Time,TemperatureF,DewpointF,PressureIn,WindDirection,WindDirectionDegrees,WindSpeedMPH,WindSpeedGustMPH,Humidity,HourlyPrecipIn,Conditions,Clouds,dailyrainin,SoftwareType,DateUTC
2013-02-27 00:02:00,29.7,13.0,30.27,South,179,0.0,5.0,51,0.00,,,0.00,weatherlink.com 1.10,2013-02-27 07:02:00,
2013-02-27 00:17:00,29.3,14.0,30.27,SSE,150,0.0,2.0,52,0.00,,,0.00,weatherlink.com 1.10,2013-02-27 07:17:00,
2013-02-27 00:32:00,28.9,13.0,30.27,WSW,241,0.0,2.0,51,0.00,,,0.00,weatherlink.com 1.10,2013-02-27 07:32:00,
2013-02-27 00:47:00,29.1,13.0,30.27,SSE,167,1.0,3.0,52,0.00,,,0.00,weatherlink.com 1.10,2013-02-27 07:47:00,
2013-02-27 01:02:00,29.0,13.0,30.27,SSE,168,0.0,4.0,52,0.00,,,0.00,weatherlink.com 1.10,2013-02-27 08:02:00,
2013-02-27 01:17:00,28.7,14.0,30.27,SSE,162,2.0,6.0,54,0.00,,,0.00,weatherlink.com 1.10,2013-02-27 08:17:00,
2013-02-27 01:32:00,28.9,14.0,30.27,SW,224,0.0,6.0,54,0.00,,,0.00,weatherlink.com 1.10,2013-02-27 08:32:00,
2013-02-27 01:47:00,29.4,14.0,30.27,SW,219,0.0,8.0,52,0.00,,,0.00,weatherlink.com 1.10,2013-02-27 08:47:00,
2013-02-27 02:02:00,29.2,14.0,30.27,South,172,1.0,5.0,53,0.00,,,0.00,weatherlink.com 1.10,2013-02-27 09:02:00,
2013-02-27 02:17:00,28.7,14.0,30.27,South,182,0.0,5.0,54,0.00,,,0.00,weatherlink.com 1.10,2013-02-27 09:17:00,
2013-02-27 02:32:00,28.5,14.0,30.27,SSE,147,6.0,8.0,54,0.00,,,0.00,weatherlink.com 1.10,2013-02-27 09:32:00,
2013-02-27 02:47:00,28.3,14.0,30.27,SSE,155,5.0,9.0,55,0.00,,,0.00,weatherlink.com 1.10,2013-02-27 09:47:00,
2013-02-27 03:02:00,28.5,14.0,30.27,NW,317,0.0,8.0,55,0.00,,,0.00,weatherlink.com 1.10,2013-02-27 10:02:00,
2013-02-27 03:17:00,28.5,14.0,30.27,SSE,162,1.0,6.0,54,0.00,,,0.00,weatherlink.com 1.10,2013-02-27 10:17:00,
2013-02-27 03:32:00,28.7,14.0,30.27,SW,228,0.0,7.0,55,0.00,,,0.00,weatherlink.com 1.10,2013-02-27 10:32:00,
2013-02-27 03:47:00,28.8,14.0,30.26,SSE,154,3.0,12.0,55,0.00,,,0.00,weatherlink.com 1.10,2013-02-27 10:47:00,
2013-02-27 04:02:00,28.8,14.0,30.26,SE,145,1.0,11.0,55,0.00,,,0.00,weatherlink.com 1.10,2013-02-27 11:02:00,
2013-02-27 04:17:00,28.9,14.0,30.27,SSE,157,4.0,12.0,54,0.00,,,0.00,weatherlink.com 1.10,2013-02-27 11:17:00,
2013-02-27 04:32:00,29.0,14.0,30.27,SSE,152,0.0,10.0,54,0.00,,,0.00,weatherlink.com 1.10,2013-02-27 11:32:00,
2013-02-27 04:47:00,29.2,14.0,30.27,NNW,328,0.0,9.0,53,0.00,,,0.00,weatherlink.com 1.10,2013-02-27 11:47:00,
2013-02-27 05:02:00,29.5,15.0,30.27,South,184,1.0,8.0,54,0.00,,,0.00,weatherlink.com 1.10,2013-02-27 12:02:00,
2013-02-27 05:17:00,29.4,15.0,30.27,NW,312,2.0,12.0,55,0.00,,,0.00,weatherlink.com 1.10,2013-02-27 12:17:00,
2013-02-27 05:32:00,29.4,15.0,30.26,ESE,123,13.0,13.0,55,0.00,,,0.00,weatherlink.com 1.10,2013-02-27 12:32:00,
2013-02-27 05:47:00,29.3,15.0,30.26,SE,128,12.0,22.0,56,0.00,,,0.00,weatherlink.com 1.10,2013-02-27 12:47:00,
2013-02-27 06:02:00,29.2,16.0,30.27,SE,135,11.0,17.0,57,0.00,,,0.00,weatherlink.com 1.10,2013-02-27 13:02:00,
2013-02-27 06:17:00,29.3,15.0,30.28,SSE,158,1.0,19.0,56,0.00,,,0.00,weatherlink.com 1.10,2013-02-27 13:17:00,
2013-02-27 06:32:00,28.9,15.0,30.27,SE,146,8.0,18.0,57,0.00,,,0.00,weatherlink.com 1.10,2013-02-27 13:32:00,
2013-02-27 06:47:00,28.9,15.0,30.28,SE,139,9.0,22.0,57,0.00,,,0.00,weatherlink.com 1.10,2013-02-27 13:47:00,
2013-02-27 07:02:00,28.9,16.0,30.27,South,176,14.0,19.0,58,0.00,,,0.00,weatherlink.com 1.10,2013-02-27 14:02:00,
2013-02-27 07:17:00,29.1,15.0,30.27,SSE,149,20.0,25.0,57,0.00,,,0.00,weatherlink.com 1.10,2013-02-27 14:17:00,
2013-02-27 07:32:00,29.3,16.0,30.28,SE,128,15.0,19.0,57,0.00,,,0.00,weatherlink.com 1.10,2013-02-27 14:32:00,
2013-02-27 07:47:00,29.7,16.0,30.27,ESE,121,12.0,22.0,56,0.00,,,0.00,weatherlink.com 1.10,2013-02-27 14:47:00,
2013-02-27 08:03:00,29.8,15.0,30.28,SE,131,10.0,25.0,55,0.00,,,0.00,weatherlink.com 1.10,2013-02-27 15:03:00,
2013-02-27 08:18:00,29.7,15.0,30.28,SSE,148,12.0,27.0,54,0.00,,,0.00,weatherlink.com 1.10,2013-02-27 15:18:00,
2013-02-27 08:33:00,30.1,15.0,30.28,SE,130,9.0,22.0,54,0.00,,,0.00,weatherlink.com 1.10,2013-02-27 15:33:00,
2013-02-27 08:48:00,30.6,15.0,30.28,ESE,121,13.0,22.0,53,0.00,,,0.00,weatherlink.com 1.10,2013-02-27 15:48:00,
2013-02-27 09:03:00,30.8,15.0,30.27,SSE,159,9.0,18.0,52,0.00,,,0.00,weatherlink.com 1.10,2013-02-27 16:03:00,
2013-02-27 09:18:00,30.7,15.0,30.28,SSE,161,7.0,21.0,52,0.00,,,0.00,weatherlink.com 1.10,2013-02-27 16:18:00,
2013-02-27 09:48:00,30.6,14.0,30.29,SE,140,11.0,19.0,51,0.00,,,0.00,weatherlink.com 1.10,2013-02-27 16:48:00,
2013-02-27 10:03:00,31.0,14.0,30.29,South,172,15.0,20.0,50,0.00,,,0.00,weatherlink.com 1.10,2013-02-27 17:03:00,
2013-02-27 10:18:00,31.4,14.0,30.29,SE,138,9.0,22.0,49,0.00,,,0.00,weatherlink.com 1.10,2013-02-27 17:18:00,
2013-02-27 10:33:00,31.6,14.0,30.29,SE,146,8.0,18.0,49,0.00,,,0.00,weatherlink.com 1.10,2013-02-27 17:33:00,
2013-02-27 10:48:00,32.6,15.0,30.28,SE,133,15.0,22.0,48,0.00,,,0.00,weatherlink.com 1.10,2013-02-27 17:48:00,
2013-02-27 11:03:00,33.7,15.0,30.29,South,170,8.0,19.0,46,0.00,,,0.00,weatherlink.com 1.10,2013-02-27 18:03:00,
2013-02-27 11:18:00,34.9,15.0,30.29,South,175,4.0,17.0,45,0.00,,,0.00,weatherlink.com 1.10,2013-02-27 18:18:00,
2013-02-27 11:33:00,36.1,15.0,30.28,SSE,148,9.0,20.0,43,0.00,,,0.00,weatherlink.com 1.10,2013-02-27 18:33:00,
2013-02-27 11:48:00,36.9,15.0,30.27,SE,135,9.0,18.0,41,0.00,,,0.00,weatherlink.com 1.10,2013-02-27 18:48:00,
2013-02-27 12:03:00,38.0,16.0,30.27,SE,138,14.0,21.0,40,0.00,,,0.00,weatherlink.com 1.10,2013-02-27 19:03:00,
2013-02-27 12:18:00,38.7,16.0,30.27,SE,127,15.0,22.0,39,0.00,,,0.00,weatherlink.com 1.10,2013-02-27 19:18:00,
2013-02-27 12:33:00,39.3,15.0,30.26,SSE,153,4.0,21.0,38,0.00,,,0.00,weatherlink.com 1.10,2013-02-27 19:33:00,
2013-02-27 12:48:00,39.1,16.0,30.25,SE,141,7.0,22.0,39,0.00,,,0.00,weatherlink.com 1.10,2013-02-27 19:48:00,
2013-02-27 13:03:00,38.0,16.0,30.25,SSE,168,14.0,20.0,40,0.00,,,0.00,weatherlink.com 1.10,2013-02-27 20:03:00,
2013-02-27 13:18:00,38.0,16.0,30.25,SSE,155,5.0,17.0,41,0.00,,,0.00,weatherlink.com 1.10,2013-02-27 20:18:00,
2013-02-27 13:33:00,39.6,16.0,30.24,SSE,162,5.0,12.0,39,0.00,,,0.00,weatherlink.com 1.10,2013-02-27 20:33:00,
2013-02-27 13:48:00,39.5,16.0,30.25,SE,144,7.0,15.0,39,0.00,,,0.00,weatherlink.com 1.10,2013-02-27 20:48:00,
2013-02-27 14:03:00,40.7,16.0,30.24,SSE,150,7.0,17.0,37,0.00,,,0.00,weatherlink.com 1.10,2013-02-27 21:03:00,
2013-02-27 14:18:00,42.2,17.0,30.23,SSE,155,10.0,15.0,37,0.00,,,0.00,weatherlink.com 1.10,2013-02-27 21:18:00,
2013-02-27 14:33:00,41.5,17.0,30.23,WSW,244,3.0,12.0,37,0.00,,,0.00,weatherlink.com 1.10,2013-02-27 21:33:00,
2013-02-27 14:48:00,41.9,17.0,30.23,WNW,299,9.0,12.0,36,0.01,,,0.01,weatherlink.com 1.10,2013-02-27 21:48:00,
2013-02-27 15:03:00,42.5,16.0,30.23,WNW,294,14.0,19.0,35,0.01,,,0.01,weatherlink.com 1.10,2013-02-27 22:03:00,
2013-02-27 15:19:00,43.1,16.0,30.23,WNW,301,11.0,23.0,33,0.01,,,0.01,weatherlink.com 1.10,2013-02-27 22:19:00,
2013-02-27 15:34:00,42.7,16.0,30.23,NW,308,8.0,24.0,34,0.01,,,0.01,weatherlink.com 1.10,2013-02-27 22:34:00,
2013-02-27 15:49:00,42.0,15.0,30.23,West,269,7.0,15.0,33,0.00,,,0.01,weatherlink.com 1.10,2013-02-27 22:49:00,
2013-02-27 16:04:00,42.0,16.0,30.22,NW,304,8.0,18.0,35,0.00,,,0.01,weatherlink.com 1.10,2013-02-27 23:04:00,
2013-02-27 16:19:00,41.1,15.0,30.23,WNW,290,7.0,16.0,35,0.00,,,0.01,weatherlink.com 1.10,2013-02-27 23:19:00,
2013-02-27 16:34:00,40.9,15.0,30.22,West,266,18.0,22.0,35,0.00,,,0.01,weatherlink.com 1.10,2013-02-27 23:34:00,
2013-02-27 16:49:00,41.6,14.0,30.23,WSW,247,2.0,12.0,33,0.00,,,0.01,weatherlink.com 1.10,2013-02-27 23:49:00,
2013-02-27 17:04:00,42.0,15.0,30.23,WSW,248,2.0,11.0,34,0.00,,,0.01,weatherlink.com 1.10,2013-02-28 00:04:00,
2013-02-27 17:19:00,42.5,14.0,30.24,WNW,289,2.0,12.0,32,0.00,,,0.01,weatherlink.com 1.10,2013-02-28 00:19:00,
2013-02-27 17:34:00,41.7,16.0,30.25,NW,307,10.0,12.0,35,0.00,,,0.01,weatherlink.com 1.10,2013-02-28 00:34:00,
2013-02-27 17:49:00,39.8,15.0,30.24,WNW,296,12.0,24.0,37,0.00,,,0.01,weatherlink.com 1.10,2013-02-28 00:49:00,
2013-02-27 18:04:00,38.8,16.0,30.25,WSW,250,10.0,12.0,39,0.00,,,0.01,weatherlink.com 1.10,2013-02-28 01:04:00,
2013-02-27 18:19:00,37.9,16.0,30.26,West,263,2.0,11.0,41,0.00,,,0.01,weatherlink.com 1.10,2013-02-28 01:19:00,
2013-02-27 18:34:00,38.0,16.0,30.26,WSW,242,1.0,11.0,40,0.00,,,0.01,weatherlink.com 1.10,2013-02-28 01:34:00,
2013-02-27 18:49:00,37.3,15.0,30.26,South,190,0.0,8.0,40,0.00,,,0.01,weatherlink.com 1.10,2013-02-28 01:49:00,
2013-02-27 19:04:00,36.3,16.0,30.27,WSW,244,4.0,7.0,43,0.00,,,0.01,weatherlink.com 1.10,2013-02-28 02:04:00,
2013-02-27 19:19:00,36.3,15.0,30.27,WSW,238,5.0,9.0,42,0.00,,,0.01,weatherlink.com 1.10,2013-02-28 02:19:00,
2013-02-27 19:34:00,37.2,15.0,30.27,WSW,243,3.0,18.0,40,0.00,,,0.01,weatherlink.com 1.10,2013-02-28 02:34:00,
2013-02-27 19:49:00,36.9,15.0,30.27,WSW,247,3.0,13.0,41,0.00,,,0.01,weatherlink.com 1.10,2013-02-28 02:49:00,
2013-02-27 20:04:00,36.0,15.0,30.26,WSW,253,1.0,8.0,43,0.00,,,0.01,weatherlink.com 1.10,2013-02-28 03:04:00,
2013-02-27 20:19:00,34.8,15.0,30.25,West,280,3.0,5.0,45,0.00,,,0.01,weatherlink.com 1.10,2013-02-28 03:19:00,
2013-02-27 20:34:00,34.4,16.0,30.25,WSW,242,6.0,6.0,48,0.00,,,0.01,weatherlink.com 1.10,2013-02-28 03:34:00,
2013-02-27 20:49:00,34.4,17.0,30.26,SSE,164,2.0,4.0,49,0.00,,,0.01,weatherlink.com 1.10,2013-02-28 03:49:00,
2013-02-27 21:04:00,34.1,17.0,30.26,SSW,201,0.0,3.0,49,0.00,,,0.01,weatherlink.com 1.10,2013-02-28 04:04:00,
2013-02-27 21:34:00,33.3,18.0,30.27,SSE,161,3.0,5.0,53,0.00,,,0.01,weatherlink.com 1.10,2013-02-28 04:34:00,
2013-02-27 21:49:00,32.8,17.0,30.26,SSE,155,0.0,7.0,53,0.00,,,0.01,weatherlink.com 1.10,2013-02-28 04:49:00,
2013-02-27 22:04:00,32.8,18.0,30.26,South,171,2.0,5.0,55,0.00,,,0.01,weatherlink.com 1.10,2013-02-28 05:04:00,
2013-02-27 22:19:00,32.5,18.0,30.26,SSE,157,0.0,5.0,55,0.00,,,0.01,weatherlink.com 1.10,2013-02-28 05:19:00,
2013-02-27 22:34:00,32.3,17.0,30.26,SSE,154,5.0,7.0,54,0.00,,,0.01,weatherlink.com 1.10,2013-02-28 05:34:00,
2013-02-27 22:49:00,32.5,17.0,30.26,SE,146,2.0,10.0,54,0.00,,,0.01,weatherlink.com 1.10,2013-02-28 05:49:00,
2013-02-27 23:04:00,32.7,18.0,30.27,SSE,148,5.0,10.0,55,0.00,,,0.01,weatherlink.com 1.10,2013-02-28 06:04:00,
2013-02-27 23:19:00,32.5,18.0,30.27,SSE,150,6.0,7.0,56,0.00,,,0.01,weatherlink.com 1.10,2013-02-28 06:19:00,
2013-02-27 23:34:00,31.9,18.0,30.26,SSE,157,6.0,7.0,58,0.00,,,0.01,weatherlink.com 1.10,2013-02-28 06:34:00,
2013-02-27 23:49:00,32.2,19.0,30.26,SSE,150,5.0,9.0,58,0.00,,,0.01,weatherlink.com 1.10,2013-02-28 06:49:00,